Flag for Canada Weather past 2 weeks in Mississauga, Ontario, Canada

Now
41 °F

Partly sunny.


Feels Like: 38 °F
Forecast: 29 / 43 °F
Wind: 5 mph from North

Location: Toronto Pearson International Airport

Current Time: Mar 31, 2015 at 1:32:49 PM

Latest Report: Mar 31, 2015 at 1:00 PM


Visibility: 15 mi

Pressure: 29.81 "Hg

Humidity: 53%

Dew point: 25 °F

Location of MississaugaLocation

Historic Weather in Mississauga — Graph

°F

Mississauga temperature yesterday

Maximum temperature yesterday: 45 °F (at 1:00 PM)
Minimum temperature yesterday: 32 °F (at 10:00 PM)
Average temperature yesterday: 39 °F

Past Weeks' High & Low Weather Summary

 TemperatureHumidityPressure
High54 °F (Mar 16, 4:00 PM)100% (Mar 25, 6:00 PM)30.43 "Hg (Mar 25, 6:00 PM)
Low12 °F (Mar 23, 7:00 AM)26% (Mar 28, 4:00 PM)29.57 "Hg (Mar 30, 4:00 AM)
Average30 °F60%30.08 "Hg
* Reported Mar 16 12:00 Noon — Mar 31 12:00 Noon, Mississauga, Weather by CustomWeather, © 2015

Note: Actual official high and low records may vary slightly from our data, if they occured in-between our weather recording intervals... More about our weather records

Advertising

Mississauga weather history for previous 24 hours

 ConditionsComfort  
Time TempWeatherWind HumidityBarometerVisibility
12:00 PM
Tue, Mar 31
39 °FPartly sunny.7 mph61%29.82 "Hg15 mi
11:00 AM36 °FPartly sunny.3 mph65%29.83 "Hg15 mi
10:00 AM34 °FPartly sunny.5 mph75%29.85 "Hg15 mi
9:00 AM32 °FPartly sunny.6 mph80%29.86 "Hg15 mi
8:00 AM30 °FMostly cloudy.3 mph80%29.87 "Hg15 mi
7:00 AM28 °FPassing clouds.3 mph86%29.86 "Hg15 mi
6:00 AM28 °FPassing clouds.3 mph80%29.86 "Hg15 mi
5:00 AM27 °FPassing clouds.6 mph86%29.88 "Hg15 mi
4:00 AM27 °FPassing clouds.5 mph86%29.88 "Hg15 mi
3:00 AM27 °FClear.6 mph86%29.90 "Hg15 mi
2:00 AM27 °FClear.10 mph86%29.92 "Hg15 mi
1:00 AM28 °FClear.10 mph80%29.92 "Hg15 mi
12:00 AM30 °FClear.9 mph75%29.93 "Hg15 mi
11:00 PM
Mon, Mar 30
32 °FClear.8 mph64%29.92 "Hg15 mi
10:00 PM32 °FPassing clouds.10 mph64%29.90 "Hg15 mi
9:00 PM36 °FPassing clouds.14 mph56%29.88 "Hg15 mi
8:00 PM36 °FPassing clouds.18 mph56%29.87 "Hg15 mi
7:00 PM37 °FPassing clouds.25 mph56%29.86 "Hg15 mi
6:00 PM41 °FScattered clouds.28 mph49%29.82 "Hg15 mi
5:00 PM43 °FPassing clouds.28 mph49%29.81 "Hg15 mi
4:00 PM41 °FScattered showers. Scattered clouds.24 mph76%29.79 "Hg15 mi
3:55 PM45 °FSnow flurries. Partly sunny.29 mph53%29.78 "Hg15 mi
3:00 PM45 °FPartly sunny.25 mph57%29.78 "Hg15 mi
2:00 PM43 °FScattered showers. Mostly cloudy.22 mph66%29.79 "Hg15 mi
1:00 PM45 °FPartly sunny.24 mph46%29.77 "Hg15 mi
Weather by CustomWeather, © 2015

See weather overviewHow to use our weather pages